Airfield :
LOGIN :

Register | Disclaimer

   EN    FR    IT 

 










Legend :    VFR   Marginal VFR   IFR   Intensive IFR   Very Intensive IFR
Visi :
Ceiling :
>= 8 km
>= 3000ft
5 to 8 km
1000 to 3000 ft
1500m to 5 km
500 to 1000 ft
800 to 1500m
200 to 500 ft
< 800m
< 200 ft
Symbols :   Thunderstorms  Fog  Heavy snow  Heavy precipitations  Wind > 20 kt
SIGMETs :     Misc.  Thunderstorms  Icing  Turbulence  Mountain Waves  Volcanic Ashes







- Airport Elevation : 138 ft
- IATA code : RLG


ETNL - Rostock Laage

CURRENT METAR :
  • 151420Z 18005KT 9999 FEW260 24/08 Q1013 BLU+BLU+

EXPIRED METARs :
  • 151320Z 16006KT 9999 FEW280 23/08 Q1014 BLU+BLU+
  • 151220Z 17004KT 9999 FEW160 22/09 Q1014 BLU+BLU+

TAF TAF ETNL
Valid from the 15 at 11:00 until the 15 at 20:00 UTC


151025Z 1511/1520 16008KT 9999 NSW FEW280 BY ETGL
No reported NOTAMs for that airfield.



MET'MAP, your aeronautical weather chart ! - Copyright ORBIFLY December 2007 - Disclaimer

ORBIFLY MET'MAP TEAM :

Programming & Development : Alexandra Zaïnal
Concept & Development : Baudouin d'Aumeries
Co-Development & Prog : Marc-Olivier Méhu
Technical & hardware support : Manuel Goepfert

Contact : metmap@orbifly.com




SOURCES & CREDITS :

   NOAA